Regional Weather Roundup
Issued by NWS

Home | Current Version | Previous Version | Graphics & Text | Print | Product List | Glossary On
Versions: 1 2 3 4 5 6 7 8 9 10 11 12 13 14 15 16 17 18 19 20 21 22 23 24 25 26 27 28 29 30 31 32 33 34 35 36 37 38 39 40 41 42 43 44 45 46 47 48 49 50
000
ASUS43 KLOT 021708
RWRIL

ILLINOIS REGIONAL WEATHER ROUNDUP
NATIONAL WEATHER SERVICE CHICAGO/ROMEOVILLE IL
1200 PM CDT TUE JUN 02 2015

NOTE: "FAIR" INDICATES FEW OR NO CLOUDS BELOW 12,000 FEET WITH NO
SIGNIFICANT WEATHER AND/OR OBSTRUCTIONS TO VISIBILITY.

* THESE STATIONS ARE NOT UNDER NWS QUALITY CONTROL. THEY ALSO MAY NOT
  REPORT WEATHER SUCH AS PRECIPITATION OR FOG.

ILZ001-002-007-009-015-016-024-021800-
NORTHWEST ILLINOIS

CITY           SKY/WX    TMP DP  RH WIND       PRES   REMARKS
MOLINE         MOSUNNY   69  50  50 S3        30.12F
STERLING*      SUNNY     68  50  52 NE5       30.14F
SAVANNA*       MOSUNNY   68  49  51 E3        30.13F
$$

ILZ003-004-008-010-011-017-018-021800-
NORTH CENTRAL ILLINOIS

CITY           SKY/WX    TMP DP  RH WIND       PRES   REMARKS
ROCKFORD       MOSUNNY   68  47  46 VRB6      30.16F
FREEPORT*      SUNNY     65  42  43 SE7       30.16F
ROCHELLE*      SUNNY     66  45  45 E6        30.15F
DE KALB*       SUNNY     64  46  51 S8        30.17S
PERU*          SUNNY     66  46  48 E6        30.15F
$$

ILZ005-006-012>014-019>023-021800-
NORTHEAST ILLINOIS

CITY           SKY/WX    TMP DP  RH WIND       PRES   REMARKS
CHICAGO-OHARE  MOSUNNY   68  45  43 SE10      30.16F
CHICAGO-MIDWAY MOSUNNY   67  46  47 E12       30.17F
AURORA         SUNNY     68  47  46 E7        30.16F
LANSING*       MOSUNNY   65  46  50 E7        30.17F
JOLIET*        SUNNY     68  51  53 S6        30.16F
WAUKEGAN       SUNNY     59  46  62 E9        30.18S
DUPAGE AIRPORT SUNNY     67  46  47 SE8       30.15F
KANKAKEE*      SUNNY     66  50  57 E7        30.17F
WHEELING       SUNNY     66  44  45 E9        30.18F
MORRIS*        MOSUNNY   68  48  49 SE9       30.14F
ROMEOVILLE*    SUNNY     67  48  51 S6        30.16F
NORTHERLY ISL    N/A     55  49  80 N3          N/A
$$

LMZ740>746-021800-
SOUTHERN LAKE MICHIGAN

STATION/POSITION SKY/WX   TEMP    WIND        PRES    VSBY  WAVE
                          AIR SEA DIR/SP/G                  HT/PER
                          (F)     (DEG/KT/KT) (MB)    (MI)  (FT/S)
SOUTHERN BUOY              42 39  120/  6/  8 1023.0F         1
HARRISON CRIB              50      80/  6/  7   N/A
BURNHAM HARBOR             55      40/  4/  5   N/A
CALUMET HARBOR             54      50/  5/  7   N/A
BURNS HARBOR                       20/  7/  9 1023.0F
MICHIGAN CITY              57     340/  9/ 10   N/A
MICHIGAN CITY 6N           53 56   10/  8/  8   N/A           1/ 4
ST. JOSEPH                 54 56  350/  8/  8   N/A           1
$$

ILZ025>027-034>036-040-047-049-050-058-095>099-021800-
WEST-CENTRAL ILLINOIS

CITY           SKY/WX    TMP DP  RH WIND       PRES   REMARKS
QUINCY         CLOUDY    68  52  56 SE9       30.12F
GALESBURG*     PTSUNNY   67  53  60 SE6       30.13F
MACOMB*        CLOUDY    66  53  61 E8        30.15F
JACKSONVILLE*  PTSUNNY   69  54  59 E10G16    30.13F
PITTSFIELD*    PTSUNNY   68  53  59 E7        30.14S
$$

ILZ028>032-037-038-041>044-048-051>054-059>061-021800-
CENTRAL ILLINOIS

CITY           SKY/WX    TMP DP  RH WIND       PRES   REMARKS
PONTIAC        SUNNY     67  50  54 E6        30.16F
BLOOMINGTON    SUNNY     67  50  54 E12       30.16F
DECATUR        SUNNY     67  52  58 E12       30.14F
PEORIA         MOSUNNY   69  50  50 E8        30.14F
LACON*         SUNNY     67  47  49 E9        30.13F
LINCOLN*       SUNNY     68  47  47 E9        30.13F
SPRINGFIELD    SUNNY     70  52  52 SE9G18    30.14F
TAYLORVILLE    MOSUNNY   64  54  68 E6        30.14S
$$

ILZ033-039-045-046-055>057-062-063-021800-
EAST-CENTRAL ILLINOIS

CITY           SKY/WX    TMP DP  RH WIND       PRES   REMARKS
CHAMPAIGN      SUNNY     66  50  56 E13       30.15S
DANVILLE*      SUNNY     65  52  64 E8        30.12F
RANTOUL*       SUNNY     68  50  52 E9G16     30.15F
MATTOON        MOSUNNY   67  54  63 VRB7      30.13F
PARIS*         SUNNY     67  53  60 E12       30.14F
$$

ILZ079-100>102-021800-
SOUTHWEST ILLINOIS

CITY           SKY/WX    TMP DP  RH WIND       PRES   REMARKS
ALTON          PTSUNNY   68  59  73 E12       30.12F
BELLEVILLE     PTSUNNY   65  57  75 E6        30.11F
CAHOKIA*       CLOUDY    68  55  63 E6        30.12F
SPARTA*        CLOUDY    62  56  81 CALM      30.14S
$$

ILZ064>066-069>071-074>076-080>082-084>086-088>090-092>094-021800-
SOUTH-CENTRAL ILLINOIS

CITY           SKY/WX    TMP DP  RH WIND       PRES   REMARKS
CARBONDALE     CLOUDY    62  55  77 NE6       30.13S
CAIRO*         CLOUDY    63  56  79 CALM      30.12F
EFFINGHAM*     CLOUDY    62  51  67 NE3       30.16S
MARION         CLOUDY    63  57  82 MISG      30.13S
MT. VERNON     CLOUDY    61  52  72 NE6       30.15R
CENTRALIA*     CLOUDY    67  52  57 NE6       30.13F
SALEM*         CLOUDY    62  54  74 N3        30.15S
$$

ILZ067-068-072-073-078-083-087-091-021800-
SOUTHEAST ILLINOIS

CITY           SKY/WX    TMP DP  RH WIND       PRES   REMARKS
LAWRENCEVILLE  CLOUDY    61  53  75 NE5       30.15S
FLORA*         MOSUNNY   60  53  76 NE8       30.14F
FAIRFIELD*     CLOUDY    60  54  80 NE5       30.14R
HARRISBURG*    CLOUDY    62  56  81 NE3       30.14S
ROBINSON*      PTSUNNY   64  54  70 CALM      30.15S
CARMI*         CLOUDY    63  52  67 N8        30.13S
$$

ABBREVIATIONS USED IN REMARKS
   TC - TEMPERATURE IN CELSIUS
  WCI - WIND CHILL INDEX
   HX - HEAT INDEX
  VSB - VISIBILITY
$$



USA.gov is the U.S. government's official web portal to all federal, state and local government web resources and services.